Lid_Strength_Index
2 2 2 2 2 2 1 2 2 2 2 2 2 2 2 2 1 2 4 4 7 10 11 11 10 13 13 14 17 16 15 16 16 20 22 17 21 17 18 16 17 18 24 29 30 27 23 13 14 17 14 12 12 13
2 2 2 2 2 2 2 2 2 2 2 2 2 2 2 2 2 2 6 4 4 8 9 9 8 8 8 9 11 13 12 16 11 17 19 18 23 21 20 22 13 19 17 20 19 20 13 12 12 10 10 11 11 12
2 2 2 2 2 2 1 2 2 2 2 2 2 2 2 2 2 2 6 5 5 8 8 9 9 7 7 6 4 11 14 9 10 9 13 14 17 15 23 22 18 15 14 15 15 13 13 11 10 9 10 10 10 10
2 2 2 1 1 2 2 2 1 1 1 1 2 1 1 1 1 1 4 3 4 6 10 11 8 8 5 5 5 5 7 8 8 8 10 13 17 11 15 14 15 13 14 16 15 12 11 11 10 9 9 9 10 10
1 1 1 1 1 1 1 1 1 1 0 0 0 0 0 0 0 1 3 3 2 5 9 9 9 8 6 5 6 6 6 7 8 9 11 12 12 11 13 12 14 11 13 14 15 11 11 11 9 9 10 10 12 12
1 1 1 1 1 1 1 0 0 0 -0 -0 -1 -0 -1 -1 -1 2 6 3 1 2 6 10 8 12 8 7 7 7 6 7 7 8 10 10 9 10 13 16 12 10 10 9 11 9 9 9 10 12 12 12 13 13
2 1 1 1 1 1 0 0 -0 -0 -0 -1 -1 -1 -1 -1 1 4 6 5 1 1 6 10 13 12 9 10 12 9 7 6 7 8 10 10 10 8 11 15 11 9 9 9 8 9 10 9 11 13 13 13 14 15
2 2 2 2 1 1 1 0 0 0 -0 -0 -1 -1 -1 -1 -1 3 2 0 1 4 6 10 15 17 12 14 13 9 9 8 8 9 10 10 10 10 14 11 9 9 8 8 13 13 13 14 14 14 15 16 17 17
2 2 2 2 2 2 1 1 1 0 0 -0 -1 -1 0 2 5 5 -0 -1 1 5 9 10 14 19 12 13 12 12 9 12 8 11 10 11 15 15 13 10 10 9 13 15 16 16 16 16 17 17 18 19 19 18
3 3 3 3 2 2 2 1 1 1 1 -0 1 4 6 5 0 0 3 5 5 6 7 11 16 15 11 14 17 13 11 12 14 13 10 12 14 10 11 17 17 18 18 17 17 19 21 22 20 19 20 19 19 19
4 3 3 3 3 3 2 2 1 1 0 3 6 7 4 1 5 6 8 9 10 13 9 12 15 17 12 15 15 10 12 11 15 16 15 24 22 12 18 20 19 19 19 21 20 20 20 21 21 21 20 20 20 21
3 3 3 3 3 3 2 2 1 2 4 3 4 3 3 5 8 10 11 12 14 17 20 18 15 11 11 9 12 11 13 12 16 23 19 24 16 21 21 21 21 21 22 23 23 23 22 21 22 22 23 23 23 22
3 3 3 3 3 3 2 2 1 1 1 3 5 8 8 8 13 14 17 21 21 22 21 18 15 12 10 9 10 11 14 15 19 19 21 19 20 24 25 23 24 23 24 24 24 24 24 24 24 25 25 24 25 25
3 3 3 3 3 3 2 2 1 1 4 7 9 13 12 13 12 18 18 17 16 17 17 16 17 13 11 11 10 14 13 16 21 23 22 20 26 26 25 25 27 27 28 27 28 27 26 26 26 26 27 26 27 28
3 2 2 3 2 2 2 2 1 2 5 8 9 13 12 21 26 30 31 21 22 18 14 15 15 10 12 12 11 13 17 19 21 20 22 27 27 25 27 29 31 30 30 31 31 31 29 28 29 29 29 30 30 30
3 3 5 3 2 2 2 2 2 3 5 7 11 14 19 18 24 25 27 23 22 15 17 14 14 13 14 14 14 16 20 22 18 27 30 27 28 29 30 31 29 33 35 34 33 33 30 30 31 30 31 31 31 31
3 8 3 3 2 2 2 4 5 11 11 13 17 20 18 17 15 19 20 21 16 16 19 17 17 16 13 14 19 21 20 22 31 33 27 26 26 26 28 34 34 36 35 34 37 36 35 34 37 37 34 29 30 27
7 6 2 1 2 4 10 10 10 13 17 20 17 21 22 23 22 23 25 18 16 18 18 18 13 16 18 21 23 24 30 33 29 27 28 32 36 38 38 36 35 36 35 35 37 36 38 36 33 30 31 28 25 23
3 3 1 -0 3 7 10 14 13 18 25 26 23 22 23 24 22 22 22 18 19 19 17 16 15 17 19 27 30 36 38 34 32 30 31 34 32 36 36 37 35 36 36 36 36 33 32 32 28 25 24 23 24 23
3 2 3 2 3 9 14 16 14 19 21 21 24 26 24 25 25 27 25 21 18 19 19 16 17 28 27 31 32 33 32 30 33 36 34 30 30 36 34 35 33 35 35 35 33 27 27 26 24 24 24 24 24 24
6 6 5 8 11 13 16 18 20 21 22 26 23 23 25 24 27 27 24 22 19 18 19 26 28 32 40 42 40 38 32 31 35 34 33 33 31 33 33 34 34 35 33 32 28 26 26 27 26 25 25 25 24 24
13 7 10 9 13 16 19 18 19 20 23 26 23 25 27 26 27 27 25 22 23 28 29 31 34 39 39 37 38 41 40 40 41 35 31 31 30 29 28 27 27 28 27 27 27 27 27 26 26 26 26 26 25 25
12 12 15 15 16 19 23 18 21 23 22 25 25 23 26 26 27 23 23 30 33 33 41 42 43 46 40 43 43 43 43 37 37 37 36 35 34 30 26 27 27 28 27 26 26 26 27 26 26 27 27 27 28 28
16 23 24 24 22 24 23 25 22 23 23 24 23 25 27 28 29 29 31 38 36 39 41 41 42 37 38 38 38 39 39 42 39 39 39 34 30 28 26 27 27 26 26 26 26 27 27 27 27 27 28 29 30 31
21 31 29 32 31 29 26 26 26 24 26 33 32 30 32 38 32 33 32 35 39 40 40 45 42 38 37 41 40 39 40 35 31 29 28 28 28 27 26 25 25 26 26 27 28 28 28 28 28 29 29 31 31 31
34 37 34 40 33 31 34 32 35 34 35 35 37 39 42 36 31 30 34 37 41 39 39 35 33 38 37 36 33 33 30 28 28 27 26 25 25 26 27 27 27 26 26 27 29 30 30 29 30 30 30 29 29 31
35 37 38 38 38 36 34 37 39 37 36 34 38 37 36 32 33 31 35 35 34 37 36 33 31 30 30 32 32 29 27 25 25 25 25 26 25 25 25 27 26 25 26 28 29 30 31 31 31 30 30 29 31 31
40 41 36 38 39 44 40 42 40 37 37 38 37 31 30 30 30 31 30 30 37 35 32 32 30 29 30 26 24 23 24 24 25 25 26 26 26 26 26 25 25 21 26 27 27 28 30 30 30 31 31 31 29 33
38 44 43 38 40 36 39 38 39 40 38 39 33 30 31 30 31 31 31 30 33 30 29 29 28 28 26 24 23 24 25 26 27 27 28 29 28 26 28 28 27 28 28 29 25 23 26 28 29 29 29 30 30 38
39 44 35 38 35 35 38 43 43 48 48 45 43 36 32 32 35 39 37 34 31 30 29 28 27 26 25 26 25 26 31 29 28 28 31 31 30 32 35 35 33 32 35 37 31 30 28 30 32 35 34 34 35 35
48 48 41 42 38 42 47 53 54 53 51 51 54 45 40 43 38 37 35 34 33 32 29 29 29 29 27 28 34 35 31 34 37 34 33 33 32 32 32 31 31 32 35 34 34 35 34 35 37 36 35 34 33 32
49 48 43 38 40 47 52 51 52 47 47 44 42 48 38 35 30 28 29 31 31 30 28 29 30 30 33 34 37 36 30 33 32 30 29 29 28 28 28 29 31 35 35 33 33 33 34 35 33 33 31 32 32 32
42 46 49 45 43 41 47 47 45 43 46 45 42 43 43 39 31 29 32 36 34 36 35 34 34 36 34 33 32 28 26 26 26 23 22 22 23 24 25 27 30 31 32 31 31 31 32 32 31 31 31 30 30 30